International Skating Union - Official Site

Essent ISU World Cup Kolomna
November 24-25, 2012

Draw | Lap Times | Index | World Cup

Referee: Daniel  CABELDUC  (SWE)
Starter: Janny  SMEGEN  (NED)
StartTime: EndTime: Air Temp: Ice Temp: Humidity:
16:36 18:01 14.7℃ 6.4℃ 31.7%
Result 5000m Men Division A
Rankings as of Nov 24 2012 6:06PM
Rank: No.: Name: Nation: Time: Behind: Points:
1 51 Sven  Kramer NED NED 6:10.62200m - 18.67 - (18.6)
600m - 48.33 - (29.6)
1000m - 1:17.82 - (29.4)
1400m - 1:47.27 - (29.4)
1800m - 2:16.35 - (29.0)
2200m - 2:45.63 - (29.2)
2600m - 3:15.07 - (29.4)
3000m - 3:44.34 - (29.2)
3400m - 4:13.41 - (29.0)
3800m - 4:42.83 - (29.4)
4200m - 5:11.94 - (29.1)
4600m - 5:41.19 - (29.2)
5000m - 6:10.62 - (29.4)
100
2 46 Jan  Blokhuijsen NED NED 6:11.97200m - 18.17 - (18.1)
600m - 46.61 - (28.4)
1000m - 1:15.59 - (28.9)
1400m - 1:45.27 - (29.6)
1800m - 2:14.91 - (29.6)
2200m - 2:44.59 - (29.6)
2600m - 3:14.31 - (29.7)
3000m - 3:43.98 - (29.6)
3400m - 4:13.46 - (29.4)
3800m - 4:42.95 - (29.4)
4200m - 5:12.37 - (29.4)
4600m - 5:42.05 - (29.6)
5000m - 6:11.97 - (29.9)
1.35 80
3 44 Jorrit  Bergsma NED NED 6:13.08200m - 19.42 - (19.4)
600m - 48.83 - (29.4)
1000m - 1:18.35 - (29.5)
1400m - 1:47.76 - (29.4)
1800m - 2:17.27 - (29.5)
2200m - 2:46.61 - (29.3)
2600m - 3:16.19 - (29.5)
3000m - 3:45.66 - (29.4)
3400m - 4:15.17 - (29.5)
3800m - 4:44.59 - (29.4)
4200m - 5:14.09 - (29.5)
4600m - 5:43.51 - (29.4)
5000m - 6:13.08 - (29.5)
2.46 70
4 49 Bob  de Jong NED NED 6:14.37200m - 19.80 - (19.8)
600m - 49.53 - (29.7)
1000m - 1:18.97 - (29.4)
1400m - 1:48.62 - (29.6)
1800m - 2:18.19 - (29.5)
2200m - 2:47.61 - (29.4)
2600m - 3:17.13 - (29.5)
3000m - 3:46.64 - (29.5)
3400m - 4:16.36 - (29.7)
3800m - 4:45.80 - (29.4)
4200m - 5:15.10 - (29.3)
4600m - 5:44.60 - (29.5)
5000m - 6:14.37 - (29.7)
3.75 60
5 41 Seung-Hoon  Lee KOR KOR 6:17.41200m - 18.92 - (18.9)
600m - 49.31 - (30.3)
1000m - 1:19.69 - (30.3)
1400m - 1:50.13 - (30.4)
1800m - 2:20.22 - (30.0)
2200m - 2:50.68 - (30.4)
2600m - 3:20.58 - (29.9)
3000m - 3:50.33 - (29.7)
3400m - 4:19.77 - (29.4)
3800m - 4:49.14 - (29.3)
4200m - 5:18.23 - (29.0)
4600m - 5:47.64 - (29.4)
5000m - 6:17.41 - (29.7)
6.79 50
6 58 Håvard  Bøkko NOR NOR 6:17.51200m - 18.78 - (18.7)
600m - 47.96 - (29.1)
1000m - 1:17.68 - (29.7)
1400m - 1:47.44 - (29.7)
1800m - 2:17.19 - (29.7)
2200m - 2:46.97 - (29.7)
2600m - 3:17.00 - (30.0)
3000m - 3:46.86 - (29.8)
3400m - 4:16.89 - (30.0)
3800m - 4:46.77 - (29.8)
4200m - 5:16.90 - (30.1)
4600m - 5:47.07 - (30.1)
5000m - 6:17.51 - (30.4)
6.89 45
7 60 Sverre  Lunde Pedersen NOR NOR 6:19.16200m - 18.84 - (18.8)
600m - 48.82 - (29.9)
1000m - 1:19.24 - (30.4)
1400m - 1:49.37 - (30.1)
1800m - 2:19.30 - (29.9)
2200m - 2:49.23 - (29.9)
2600m - 3:19.25 - (30.0)
3000m - 3:49.35 - (30.1)
3400m - 4:19.37 - (30.0)
3800m - 4:49.20 - (29.8)
4200m - 5:18.91 - (29.7)
4600m - 5:48.65 - (29.7)
5000m - 6:19.16 - (30.5)
8.54 40
8 74 Ivan  Skobrev RUS RUS 6:19.17200m - 19.10 - (19.1)
600m - 49.04 - (29.9)
1000m - 1:19.52 - (30.4)
1400m - 1:49.90 - (30.3)
1800m - 2:20.28 - (30.3)
2200m - 2:50.38 - (30.1)
2600m - 3:20.89 - (30.5)
3000m - 3:51.20 - (30.3)
3400m - 4:21.30 - (30.1)
3800m - 4:51.18 - (29.8)
4200m - 5:20.60 - (29.4)
4600m - 5:50.01 - (29.4)
5000m - 6:19.17 - (29.1)
8.55 35
9 17 Alexis  Contin FRA FRA 6:19.50200m - 18.49 - (18.4)
600m - 47.54 - (29.0)
1000m - 1:17.29 - (29.7)
1400m - 1:47.21 - (29.9)
1800m - 2:16.67 - (29.4)
2200m - 2:46.77 - (30.1)
2600m - 3:16.58 - (29.8)
3000m - 3:46.80 - (30.2)
3400m - 4:16.98 - (30.1)
3800m - 4:47.32 - (30.3)
4200m - 5:17.57 - (30.2)
4600m - 5:48.13 - (30.5)
5000m - 6:19.50 - (31.3)
8.88 30
10 3 Bart  Swings BEL BEL 6:20.37200m - 18.96 - (18.9)
600m - 48.66 - (29.7)
1000m - 1:18.96 - (30.3)
1400m - 1:48.94 - (29.9)
1800m - 2:19.18 - (30.2)
2200m - 2:49.25 - (30.0)
2600m - 3:19.42 - (30.1)
3000m - 3:49.40 - (29.9)
3400m - 4:19.61 - (30.2)
3800m - 4:49.52 - (29.9)
4200m - 5:19.66 - (30.1)
4600m - 5:49.85 - (30.1)
5000m - 6:20.37 - (30.5)
9.75 25
11 45 Ted-Jan  Bloemen NED NED 6:20.69200m - 18.79 - (18.7)
600m - 48.17 - (29.3)
1000m - 1:17.63 - (29.4)
1400m - 1:47.38 - (29.7)
1800m - 2:17.28 - (29.9)
2200m - 2:47.23 - (29.9)
2600m - 3:17.40 - (30.1)
3000m - 3:47.82 - (30.4)
3400m - 4:18.14 - (30.3)
3800m - 4:48.66 - (30.5)
4200m - 5:19.33 - (30.6)
4600m - 5:49.86 - (30.5)
5000m - 6:20.69 - (30.8)
10.07 21
12 32 Dmitry  Babenko KAZ KAZ 6:23.00200m - 18.46 - (18.4)
600m - 47.99 - (29.5)
1000m - 1:18.08 - (30.0)
1400m - 1:48.19 - (30.1)
1800m - 2:18.34 - (30.1)
2200m - 2:48.52 - (30.1)
2600m - 3:18.89 - (30.3)
3000m - 3:49.33 - (30.4)
3400m - 4:20.11 - (30.7)
3800m - 4:50.86 - (30.7)
4200m - 5:21.40 - (30.5)
4600m - 5:52.29 - (30.8)
5000m - 6:23.00 - (30.7)
12.38 18
13 24 Marco  Weber GER GER 6:25.65200m - 19.71 - (19.7)
600m - 49.80 - (30.0)
1000m - 1:19.99 - (30.1)
1400m - 1:50.14 - (30.1)
1800m - 2:20.26 - (30.1)
2200m - 2:50.35 - (30.0)
2600m - 3:20.73 - (30.3)
3000m - 3:51.41 - (30.6)
3400m - 4:22.12 - (30.7)
3800m - 4:53.01 - (30.8)
4200m - 5:24.03 - (31.0)
4600m - 5:54.90 - (30.8)
5000m - 6:25.65 - (30.7)
15.03 16
14 20 Alexej  Baumgärtner GER GER 6:26.17200m - 19.24 - (19.2)
600m - 48.88 - (29.6)
1000m - 1:19.02 - (30.1)
1400m - 1:49.01 - (29.9)
1800m - 2:19.25 - (30.2)
2200m - 2:49.42 - (30.1)
2600m - 3:20.25 - (30.8)
3000m - 3:50.87 - (30.6)
3400m - 4:21.87 - (31.0)
3800m - 4:52.79 - (30.9)
4200m - 5:24.03 - (31.2)
4600m - 5:55.28 - (31.2)
5000m - 6:26.17 - (30.8)
15.55 14
15 75 Denis  Yuskov RUS RUS 6:26.52200m - 18.93 - (18.9)
600m - 48.67 - (29.7)
1000m - 1:18.35 - (29.6)
1400m - 1:48.09 - (29.7)
1800m - 2:17.84 - (29.7)
2200m - 2:47.64 - (29.8)
2600m - 3:17.59 - (29.9)
3000m - 3:48.17 - (30.5)
3400m - 4:19.31 - (31.1)
3800m - 4:50.52 - (31.2)
4200m - 5:22.51 - (31.9)
4600m - 5:54.41 - (31.9)
5000m - 6:26.52 - (32.1)
15.90 12
16 67 Jan  Szymanski POL POL 6:27.02200m - 18.89 - (18.8)
600m - 48.86 - (29.9)
1000m - 1:18.52 - (29.6)
1400m - 1:48.70 - (30.1)
1800m - 2:18.62 - (29.9)
2200m - 2:49.28 - (30.6)
2600m - 3:19.75 - (30.4)
3000m - 3:50.69 - (30.9)
3400m - 4:21.64 - (30.9)
3800m - 4:53.15 - (31.5)
4200m - 5:24.74 - (31.5)
4600m - 5:56.11 - (31.3)
5000m - 6:27.02 - (30.9)
16.40 10